Time,TemperatureF,DewpointF,PressureIn,WindDirection,WindDirectionDegrees,WindSpeedMPH,WindSpeedGustMPH,Humidity,HourlyPrecipIn,Conditions,Clouds,dailyrainin,SoftwareType,DateUTC
2013-04-06 00:04:00,56.7,12.4,29.41,SE,135,5.4,7.6,17,0.00,,,0.00,VWS V13.01,2013-04-06 05:04:00,
2013-04-06 00:09:00,56.7,12.4,29.41,ESE,112,4.0,4.9,17,0.00,,,0.00,VWS V13.01,2013-04-06 05:09:00,
2013-04-06 00:14:00,56.7,12.4,29.41,SE,135,3.6,5.4,17,0.00,,,0.00,VWS V13.01,2013-04-06 05:14:00,
2013-04-06 00:19:00,56.5,12.2,29.41,SE,135,4.9,5.4,17,0.00,,,0.00,VWS V13.01,2013-04-06 05:19:00,
2013-04-06 00:25:00,56.5,12.2,29.41,SE,135,2.7,3.6,17,0.00,,,0.00,VWS V13.01,2013-04-06 05:25:00,
2013-04-06 00:31:00,56.7,12.4,29.41,SE,135,5.8,5.8,17,0.00,,,0.00,VWS V13.01,2013-04-06 05:31:00,
2013-04-06 00:36:00,56.8,12.5,29.41,SE,135,7.2,7.2,17,0.00,,,0.00,VWS V13.01,2013-04-06 05:36:00,
2013-04-06 00:41:00,57.0,12.7,29.41,SSE,158,6.3,6.3,17,0.00,,,0.00,VWS V13.01,2013-04-06 05:41:00,
2013-04-06 00:46:00,57.0,12.7,29.41,SE,135,7.2,7.2,17,0.00,,,0.00,VWS V13.01,2013-04-06 05:46:00,
2013-04-06 00:51:00,57.0,12.7,29.41,SE,135,5.4,5.4,17,0.00,,,0.00,VWS V13.01,2013-04-06 05:51:00,
2013-04-06 00:56:00,56.8,12.5,29.41,SE,135,4.9,5.8,17,0.00,,,0.00,VWS V13.01,2013-04-06 05:56:00,
2013-04-06 01:02:00,56.7,12.4,29.41,SE,135,4.0,7.2,17,0.00,,,0.00,VWS V13.01,2013-04-06 06:02:00,
2013-04-06 01:07:00,56.5,12.2,29.41,East,90,3.6,5.4,17,0.00,,,0.00,VWS V13.01,2013-04-06 06:07:00,
2013-04-06 01:12:00,56.3,12.1,29.41,SE,135,4.0,5.4,17,0.00,,,0.00,VWS V13.01,2013-04-06 06:12:00,
2013-04-06 01:17:00,56.1,11.9,29.41,East,90,4.9,6.3,17,0.00,,,0.00,VWS V13.01,2013-04-06 06:17:00,
2013-04-06 01:22:00,56.1,11.9,29.41,SE,135,7.6,7.6,17,0.00,,,0.00,VWS V13.01,2013-04-06 06:22:00,
2013-04-06 01:27:00,56.1,11.9,29.41,SE,135,4.0,6.3,17,0.00,,,0.00,VWS V13.01,2013-04-06 06:27:00,
2013-04-06 01:33:00,56.1,11.9,29.41,SE,135,4.9,6.7,17,0.00,,,0.00,VWS V13.01,2013-04-06 06:33:00,
2013-04-06 01:38:00,55.9,11.8,29.41,ESE,112,3.1,5.8,17,0.00,,,0.00,VWS V13.01,2013-04-06 06:38:00,
2013-04-06 01:43:00,55.9,11.8,29.41,SE,135,3.6,5.4,17,0.00,,,0.00,VWS V13.01,2013-04-06 06:43:00,
2013-04-06 01:48:00,55.9,11.8,29.38,SE,135,3.1,3.1,17,0.00,,,0.00,VWS V13.01,2013-04-06 06:48:00,
2013-04-06 01:53:00,55.8,11.6,29.38,ESE,112,3.6,3.6,17,0.00,,,0.00,VWS V13.01,2013-04-06 06:53:00,
2013-04-06 01:58:00,55.8,11.6,29.38,East,90,5.4,5.4,17,0.00,,,0.00,VWS V13.01,2013-04-06 06:58:00,
2013-04-06 02:03:00,55.8,11.6,29.38,SE,135,3.6,3.6,17,0.00,,,0.00,VWS V13.01,2013-04-06 07:03:00,
2013-04-06 02:09:00,55.9,11.8,29.38,SE,135,3.1,3.1,17,0.00,,,0.00,VWS V13.01,2013-04-06 07:09:00,
2013-04-06 02:14:00,55.9,11.8,29.38,SE,135,4.9,5.8,17,0.00,,,0.00,VWS V13.01,2013-04-06 07:14:00,
2013-04-06 02:19:00,55.8,11.6,29.38,SE,135,3.6,3.6,17,0.00,,,0.00,VWS V13.01,2013-04-06 07:19:00,
2013-04-06 02:24:00,55.8,11.6,29.38,SE,135,6.3,6.3,17,0.00,,,0.00,VWS V13.01,2013-04-06 07:24:00,
2013-04-06 02:29:00,55.8,11.6,29.38,SE,135,5.8,6.3,17,0.00,,,0.00,VWS V13.01,2013-04-06 07:29:00,
2013-04-06 02:34:00,55.6,11.5,29.38,ESE,112,4.9,7.6,17,0.00,,,0.00,VWS V13.01,2013-04-06 07:34:00,
2013-04-06 02:39:00,55.6,11.5,29.38,ESE,112,4.9,4.9,17,0.00,,,0.00,VWS V13.01,2013-04-06 07:39:00,
2013-04-06 02:44:00,55.6,11.5,29.38,SE,135,2.7,5.8,17,0.00,,,0.00,VWS V13.01,2013-04-06 07:44:00,
2013-04-06 02:49:00,55.9,11.8,29.38,ESE,112,4.0,5.8,17,0.00,,,0.00,VWS V13.01,2013-04-06 07:49:00,
2013-04-06 02:54:00,55.9,11.8,29.38,ESE,112,6.3,7.6,17,0.00,,,0.00,VWS V13.01,2013-04-06 07:54:00,
2013-04-06 03:00:00,55.9,11.8,29.38,SE,135,4.9,5.4,17,0.00,,,0.00,VWS V13.01,2013-04-06 08:00:00,
2013-04-06 03:05:00,56.3,12.1,29.38,SE,135,4.0,6.3,17,0.00,,,0.00,VWS V13.01,2013-04-06 08:05:00,
2013-04-06 03:10:00,56.1,11.9,29.38,SE,135,3.6,6.3,17,0.00,,,0.00,VWS V13.01,2013-04-06 08:10:00,
2013-04-06 03:15:00,56.1,11.9,29.38,ESE,112,5.8,7.6,17,0.00,,,0.00,VWS V13.01,2013-04-06 08:15:00,
2013-04-06 03:20:00,55.9,11.8,29.35,SE,135,4.5,8.1,17,0.00,,,0.00,VWS V13.01,2013-04-06 08:20:00,
2013-04-06 03:25:00,55.9,11.8,29.35,SE,135,3.6,4.9,17,0.00,,,0.00,VWS V13.01,2013-04-06 08:25:00,
2013-04-06 03:30:00,55.6,11.5,29.35,SE,135,6.3,6.3,17,0.00,,,0.00,VWS V13.01,2013-04-06 08:30:00,
2013-04-06 03:35:00,55.4,11.3,29.35,SE,135,4.0,6.3,17,0.00,,,0.00,VWS V13.01,2013-04-06 08:35:00,
2013-04-06 03:40:00,55.4,11.3,29.35,SE,135,7.2,7.2,17,0.00,,,0.00,VWS V13.01,2013-04-06 08:40:00,
2013-04-06 03:45:00,55.2,12.5,29.35,SE,135,4.9,7.6,18,0.00,,,0.00,VWS V13.01,2013-04-06 08:45:00,
2013-04-06 03:50:00,55.2,12.5,29.35,SSE,158,6.3,6.3,18,0.00,,,0.00,VWS V13.01,2013-04-06 08:50:00,
2013-04-06 03:55:00,55.0,12.3,29.35,SE,135,3.6,5.4,18,0.00,,,0.00,VWS V13.01,2013-04-06 08:55:00,
2013-04-06 04:00:00,55.0,12.3,29.35,SE,135,3.1,8.7,18,0.00,,,0.00,VWS V13.01,2013-04-06 09:00:00,
2013-04-06 04:06:00,55.0,12.3,29.35,SE,135,3.1,5.4,18,0.00,,,0.00,VWS V13.01,2013-04-06 09:06:00,
2013-04-06 04:11:00,54.9,12.2,29.35,SE,135,4.0,5.4,18,0.00,,,0.00,VWS V13.01,2013-04-06 09:11:00,
2013-04-06 04:16:00,54.9,12.2,29.35,ESE,112,2.7,2.7,18,0.00,,,0.00,VWS V13.01,2013-04-06 09:16:00,
2013-04-06 04:21:00,54.9,12.2,29.35,SE,135,4.0,4.9,18,0.00,,,0.00,VWS V13.01,2013-04-06 09:21:00,
2013-04-06 04:27:00,54.7,12.0,29.35,SE,135,4.5,4.5,18,0.00,,,0.00,VWS V13.01,2013-04-06 09:27:00,
2013-04-06 04:32:00,54.7,12.0,29.35,SE,135,7.6,7.6,18,0.00,,,0.00,VWS V13.01,2013-04-06 09:32:00,
2013-04-06 04:37:00,54.7,12.0,29.35,SE,135,3.6,7.2,18,0.00,,,0.00,VWS V13.01,2013-04-06 09:37:00,
2013-04-06 04:42:00,54.7,12.0,29.35,SSE,158,3.6,8.7,18,0.00,,,0.00,VWS V13.01,2013-04-06 09:42:00,
2013-04-06 04:47:00,54.7,12.0,29.35,South,180,5.4,6.7,18,0.00,,,0.00,VWS V13.01,2013-04-06 09:47:00,
2013-04-06 04:53:00,54.7,12.0,29.35,South,180,8.1,8.1,18,0.00,,,0.00,VWS V13.01,2013-04-06 09:53:00,
2013-04-06 04:58:00,54.7,12.0,29.35,SE,135,4.0,6.3,18,0.00,,,0.00,VWS V13.01,2013-04-06 09:58:00,
2013-04-06 05:03:00,54.5,11.9,29.35,SSE,158,3.1,5.8,18,0.00,,,0.00,VWS V13.01,2013-04-06 10:03:00,
2013-04-06 05:08:00,54.5,11.9,29.35,SE,135,6.3,6.3,18,0.00,,,0.00,VWS V13.01,2013-04-06 10:08:00,
2013-04-06 05:13:00,54.3,11.7,29.35,SE,135,4.0,4.0,18,0.00,,,0.00,VWS V13.01,2013-04-06 10:13:00,
2013-04-06 05:19:00,54.1,11.6,29.35,SE,135,2.2,4.0,18,0.00,,,0.00,VWS V13.01,2013-04-06 10:19:00,
2013-04-06 05:24:00,54.0,11.4,29.35,SE,135,3.1,4.9,18,0.00,,,0.00,VWS V13.01,2013-04-06 10:24:00,
2013-04-06 05:29:00,53.8,11.3,29.35,SE,135,4.0,4.0,18,0.00,,,0.00,VWS V13.01,2013-04-06 10:29:00,
2013-04-06 05:34:00,53.8,11.3,29.35,SE,135,3.6,4.0,18,0.00,,,0.00,VWS V13.01,2013-04-06 10:34:00,
2013-04-06 05:40:00,53.6,11.1,29.35,SSE,158,5.4,5.4,18,0.00,,,0.00,VWS V13.01,2013-04-06 10:40:00,
2013-04-06 05:45:00,53.6,11.1,29.35,South,180,7.2,7.2,18,0.00,,,0.00,VWS V13.01,2013-04-06 10:45:00,
2013-04-06 05:50:00,53.6,11.1,29.35,SE,135,7.2,7.2,18,0.00,,,0.00,VWS V13.01,2013-04-06 10:50:00,
2013-04-06 05:55:00,53.6,11.1,29.35,SE,135,5.4,5.4,18,0.00,,,0.00,VWS V13.01,2013-04-06 10:55:00,
2013-04-06 06:00:00,53.6,11.1,29.35,SE,135,5.4,6.3,18,0.00,,,0.00,VWS V13.01,2013-04-06 11:00:00,
2013-04-06 06:06:00,53.4,11.0,29.35,South,180,3.1,4.9,18,0.00,,,0.00,VWS V13.01,2013-04-06 11:06:00,
2013-04-06 06:11:00,53.4,11.0,29.35,SE,135,4.9,7.6,18,0.00,,,0.00,VWS V13.01,2013-04-06 11:11:00,
2013-04-06 06:16:00,53.4,11.0,29.35,South,180,4.0,5.8,18,0.00,,,0.00,VWS V13.01,2013-04-06 11:16:00,
2013-04-06 06:21:00,53.1,10.7,29.35,South,180,4.0,4.9,18,0.00,,,0.00,VWS V13.01,2013-04-06 11:21:00,
2013-04-06 06:26:00,53.1,10.7,29.35,SE,135,4.9,5.8,18,0.00,,,0.00,VWS V13.01,2013-04-06 11:26:00,
2013-04-06 06:31:00,52.9,10.6,29.35,SE,135,3.1,7.6,18,0.00,,,0.00,VWS V13.01,2013-04-06 11:31:00,
2013-04-06 06:33:00,52.9,10.6,29.35,SE,135,3.6,5.4,18,0.00,,,0.00,VWS V13.01,2013-04-06 11:33:00,
2013-04-06 06:38:00,52.9,10.6,29.35,SE,135,5.8,8.1,18,0.00,,,0.00,VWS V13.01,2013-04-06 11:38:00,
2013-04-06 06:43:00,52.9,10.6,29.35,South,180,9.6,9.6,18,0.00,,,0.00,VWS V13.01,2013-04-06 11:43:00,
2013-04-06 06:48:00,52.7,10.4,29.35,South,180,4.9,5.8,18,0.00,,,0.00,VWS V13.01,2013-04-06 11:48:00,
2013-04-06 06:53:00,52.9,10.6,29.35,SE,135,2.7,5.4,18,0.00,,,0.00,VWS V13.01,2013-04-06 11:53:00,
2013-04-06 06:58:00,52.9,10.6,29.35,SE,135,4.9,5.4,18,0.00,,,0.00,VWS V13.01,2013-04-06 11:58:00,
2013-04-06 07:03:00,52.9,10.6,29.35,SE,135,5.4,5.4,18,0.00,,,0.00,VWS V13.01,2013-04-06 12:03:00,
2013-04-06 07:08:00,52.9,10.6,29.35,South,180,6.3,7.2,18,0.00,,,0.00,VWS V13.01,2013-04-06 12:08:00,
2013-04-06 07:13:00,53.1,10.7,29.35,SE,135,6.3,6.3,18,0.00,,,0.00,VWS V13.01,2013-04-06 12:13:00,
2013-04-06 07:18:00,53.1,10.7,29.35,SE,135,4.9,5.4,18,0.00,,,0.00,VWS V13.01,2013-04-06 12:18:00,
2013-04-06 07:24:00,53.4,11.0,29.35,SE,135,5.4,6.7,18,0.00,,,0.00,VWS V13.01,2013-04-06 12:24:00,
2013-04-06 07:29:00,53.8,11.3,29.35,ESE,112,3.6,7.6,18,0.00,,,0.00,VWS V13.01,2013-04-06 12:29:00,
2013-04-06 07:34:00,54.0,11.4,29.35,SE,135,4.0,5.8,18,0.00,,,0.00,VWS V13.01,2013-04-06 12:34:00,
2013-04-06 07:39:00,54.0,11.4,29.35,East,90,4.9,6.3,18,0.00,,,0.00,VWS V13.01,2013-04-06 12:39:00,
2013-04-06 07:44:00,54.3,11.7,29.35,SE,135,3.6,5.4,18,0.00,,,0.00,VWS V13.01,2013-04-06 12:44:00,
2013-04-06 07:50:00,54.7,12.0,29.35,SE,135,3.1,8.1,18,0.00,,,0.00,VWS V13.01,2013-04-06 12:50:00,
2013-04-06 07:55:00,55.6,11.5,29.35,South,180,4.0,4.0,17,0.00,,,0.00,VWS V13.01,2013-04-06 12:55:00,
2013-04-06 08:00:00,56.1,11.9,29.35,ESE,112,4.9,5.4,17,0.00,,,0.00,VWS V13.01,2013-04-06 13:00:00,
2013-04-06 08:06:00,56.7,12.4,29.35,SE,135,4.0,7.6,17,0.00,,,0.00,VWS V13.01,2013-04-06 13:06:00,
2013-04-06 08:11:00,56.7,12.4,29.35,ESE,112,3.1,7.2,17,0.00,,,0.00,VWS V13.01,2013-04-06 13:11:00,
2013-04-06 08:16:00,56.5,12.2,29.35,SE,135,4.9,4.9,17,0.00,,,0.00,VWS V13.01,2013-04-06 13:16:00,
2013-04-06 08:21:00,56.5,12.2,29.35,SE,135,6.3,8.1,17,0.00,,,0.00,VWS V13.01,2013-04-06 13:21:00,
2013-04-06 08:26:00,56.7,12.4,29.35,SSE,158,6.3,6.3,17,0.00,,,0.00,VWS V13.01,2013-04-06 13:26:00,
2013-04-06 08:31:00,56.7,12.4,29.32,South,180,0.0,0.0,17,0.00,,,0.00,VWS V13.01,2013-04-06 13:31:00,
2013-04-06 08:37:00,56.8,12.5,29.32,SE,135,4.0,4.9,17,0.00,,,0.00,VWS V13.01,2013-04-06 13:37:00,
2013-04-06 08:42:00,57.0,12.7,29.32,SE,135,0.0,2.7,17,0.00,,,0.00,VWS V13.01,2013-04-06 13:42:00,
2013-04-06 08:47:00,57.4,12.9,29.35,South,180,2.7,4.0,17,0.00,,,0.00,VWS V13.01,2013-04-06 13:47:00,
2013-04-06 08:52:00,57.7,13.2,29.35,SE,135,3.1,3.6,17,0.00,,,0.00,VWS V13.01,2013-04-06 13:52:00,
2013-04-06 08:57:00,57.9,13.4,29.35,SSE,158,5.8,5.8,17,0.00,,,0.00,VWS V13.01,2013-04-06 13:57:00,
2013-04-06 09:02:00,58.3,13.7,29.35,South,180,4.0,4.0,17,0.00,,,0.00,VWS V13.01,2013-04-06 14:02:00,
2013-04-06 09:07:00,58.6,14.0,29.35,South,180,4.9,4.9,17,0.00,,,0.00,VWS V13.01,2013-04-06 14:07:00,
2013-04-06 09:12:00,58.8,14.1,29.35,SE,135,4.9,5.8,17,0.00,,,0.00,VWS V13.01,2013-04-06 14:12:00,
2013-04-06 09:17:00,59.2,14.4,29.32,East,90,4.9,4.9,17,0.00,,,0.00,VWS V13.01,2013-04-06 14:17:00,
2013-04-06 09:23:00,59.9,15.0,29.32,SE,135,4.0,4.0,17,0.00,,,0.00,VWS V13.01,2013-04-06 14:23:00,
2013-04-06 09:28:00,60.4,15.4,29.32,SE,135,3.1,4.9,17,0.00,,,0.00,VWS V13.01,2013-04-06 14:28:00,
2013-04-06 09:33:00,60.6,15.6,29.32,SE,135,3.6,9.6,17,0.00,,,0.00,VWS V13.01,2013-04-06 14:33:00,
2013-04-06 09:38:00,61.0,14.5,29.32,SE,135,7.6,7.6,16,0.00,,,0.00,VWS V13.01,2013-04-06 14:38:00,
2013-04-06 09:43:00,62.1,15.4,29.32,South,180,2.7,6.3,16,0.00,,,0.00,VWS V13.01,2013-04-06 14:43:00,
2013-04-06 09:48:00,63.1,16.2,29.32,SE,135,5.4,7.6,16,0.00,,,0.00,VWS V13.01,2013-04-06 14:48:00,
2013-04-06 09:53:00,64.4,15.8,29.32,South,180,7.6,7.6,15,0.00,,,0.00,VWS V13.01,2013-04-06 14:53:00,
2013-04-06 09:58:00,65.3,16.5,29.32,SE,135,8.1,8.1,15,0.00,,,0.00,VWS V13.01,2013-04-06 14:58:00,
2013-04-06 10:04:00,65.5,16.6,29.32,SE,135,10.1,10.1,15,0.00,,,0.00,VWS V13.01,2013-04-06 15:04:00,
2013-04-06 10:09:00,65.8,16.9,29.32,SE,135,5.8,5.8,15,0.00,,,0.00,VWS V13.01,2013-04-06 15:09:00,
2013-04-06 10:14:00,65.8,16.9,29.32,SE,135,3.6,3.6,15,0.00,,,0.00,VWS V13.01,2013-04-06 15:14:00,
2013-04-06 10:19:00,66.7,17.6,29.32,SE,135,3.6,3.6,15,0.00,,,0.00,VWS V13.01,2013-04-06 15:19:00,
2013-04-06 10:24:00,67.1,17.9,29.32,SE,135,3.6,3.6,15,0.00,,,0.00,VWS V13.01,2013-04-06 15:24:00,
2013-04-06 10:29:00,67.5,18.2,29.32,SE,135,3.6,3.6,15,0.00,,,0.00,VWS V13.01,2013-04-06 15:29:00,
2013-04-06 10:34:00,67.6,18.4,29.32,SE,135,3.6,3.6,15,0.00,,,0.00,VWS V13.01,2013-04-06 15:34:00,
2013-04-06 10:39:00,67.6,18.4,29.32,South,180,4.0,8.3,15,0.00,,,0.00,VWS V13.01,2013-04-06 15:39:00,
2013-04-06 10:45:00,68.2,18.8,29.32,SE,135,3.6,3.6,15,0.00,,,0.00,VWS V13.01,2013-04-06 15:45:00,
2013-04-06 10:50:00,67.5,18.2,29.32,SE,135,8.1,9.2,15,0.00,,,0.00,VWS V13.01,2013-04-06 15:50:00,
2013-04-06 10:55:00,67.6,18.4,29.32,SW,225,7.2,7.2,15,0.00,,,0.00,VWS V13.01,2013-04-06 15:55:00,
2013-04-06 11:00:00,67.8,18.5,29.32,SE,135,10.1,11.9,15,0.00,,,0.00,VWS V13.01,2013-04-06 16:00:00,
2013-04-06 11:05:00,67.8,18.5,29.29,SE,135,4.9,5.4,15,0.00,,,0.00,VWS V13.01,2013-04-06 16:05:00,
2013-04-06 11:10:00,68.2,18.8,29.29,South,180,7.6,8.3,15,0.00,,,0.00,VWS V13.01,2013-04-06 16:10:00,
2013-04-06 11:15:00,68.5,19.1,29.29,SSE,158,10.5,12.8,15,0.00,,,0.00,VWS V13.01,2013-04-06 16:15:00,
2013-04-06 11:20:00,68.7,19.2,29.29,South,180,5.8,7.2,15,0.00,,,0.00,VWS V13.01,2013-04-06 16:20:00,
2013-04-06 11:25:00,69.3,19.7,29.29,South,180,13.2,13.2,15,0.00,,,0.00,VWS V13.01,2013-04-06 16:25:00,
2013-04-06 11:30:00,68.9,19.4,29.29,South,180,7.6,11.4,15,0.00,,,0.00,VWS V13.01,2013-04-06 16:30:00,
2013-04-06 11:36:00,68.7,19.2,29.29,SE,135,8.1,10.5,15,0.00,,,0.00,VWS V13.01,2013-04-06 16:36:00,
2013-04-06 11:41:00,69.3,19.7,29.29,South,180,13.2,13.2,15,0.00,,,0.00,VWS V13.01,2013-04-06 16:41:00,
2013-04-06 11:46:00,70.2,18.8,29.29,South,180,11.0,11.0,14,0.00,,,0.00,VWS V13.01,2013-04-06 16:46:00,
2013-04-06 11:51:00,70.7,19.2,29.29,NW,315,12.8,12.8,14,0.00,,,0.00,VWS V13.01,2013-04-06 16:51:00,
2013-04-06 11:56:00,71.6,19.9,29.29,South,180,7.6,7.6,14,0.00,,,0.00,VWS V13.01,2013-04-06 16:56:00,
2013-04-06 12:02:00,72.0,20.2,29.29,South,180,8.1,10.5,14,0.00,,,0.00,VWS V13.01,2013-04-06 17:02:00,
2013-04-06 12:07:00,71.2,19.6,29.29,SE,135,3.6,12.8,14,0.00,,,0.00,VWS V13.01,2013-04-06 17:07:00,
2013-04-06 12:12:00,70.7,19.2,29.29,South,180,14.1,16.8,14,0.00,,,0.00,VWS V13.01,2013-04-06 17:12:00,
2013-04-06 12:17:00,69.8,18.5,29.26,SE,135,7.6,7.6,14,0.00,,,0.00,VWS V13.01,2013-04-06 17:17:00,
2013-04-06 12:22:00,70.7,19.2,29.26,NW,315,8.3,10.1,14,0.00,,,0.00,VWS V13.01,2013-04-06 17:22:00,
2013-04-06 12:27:00,71.4,19.8,29.26,SE,135,6.3,15.4,14,0.00,,,0.00,VWS V13.01,2013-04-06 17:27:00,
2013-04-06 12:32:00,71.2,19.6,29.26,SE,135,5.8,12.8,14,0.00,,,0.00,VWS V13.01,2013-04-06 17:32:00,
2013-04-06 12:38:00,71.2,19.6,29.26,ESE,112,5.4,12.3,14,0.00,,,0.00,VWS V13.01,2013-04-06 17:38:00,
2013-04-06 12:43:00,72.0,20.2,29.26,SW,225,6.3,6.3,14,0.00,,,0.00,VWS V13.01,2013-04-06 17:43:00,
2013-04-06 12:48:00,72.7,20.8,29.23,SE,135,10.5,10.5,14,0.00,,,0.00,VWS V13.01,2013-04-06 17:48:00,
2013-04-06 12:54:00,73.4,19.6,29.23,South,180,5.8,7.2,13,0.00,,,0.00,VWS V13.01,2013-04-06 17:54:00,
2013-04-06 12:59:00,72.5,20.6,29.23,SW,225,8.7,8.7,14,0.00,,,0.00,VWS V13.01,2013-04-06 17:59:00,
2013-04-06 13:05:00,71.8,20.1,29.23,South,180,7.6,7.6,14,0.00,,,0.00,VWS V13.01,2013-04-06 18:05:00,
2013-04-06 13:10:00,71.6,19.9,29.23,SE,135,6.3,10.1,14,0.00,,,0.00,VWS V13.01,2013-04-06 18:10:00,
2013-04-06 13:15:00,72.0,20.2,29.23,South,180,8.1,10.5,14,0.00,,,0.00,VWS V13.01,2013-04-06 18:15:00,
2013-04-06 13:20:00,72.5,20.6,29.23,SE,135,6.7,19.7,14,0.00,,,0.00,VWS V13.01,2013-04-06 18:20:00,
2013-04-06 13:25:00,72.3,20.5,29.23,South,180,15.0,15.0,14,0.00,,,0.00,VWS V13.01,2013-04-06 18:25:00,
2013-04-06 13:30:00,71.6,19.9,29.23,South,180,4.0,12.8,14,0.00,,,0.00,VWS V13.01,2013-04-06 18:30:00,
2013-04-06 13:35:00,72.5,20.6,29.23,ESE,112,3.6,8.1,14,0.00,,,0.00,VWS V13.01,2013-04-06 18:35:00,
2013-04-06 13:41:00,73.4,19.6,29.23,South,180,4.9,8.3,13,0.00,,,0.00,VWS V13.01,2013-04-06 18:41:00,
2013-04-06 13:47:00,73.6,19.8,29.20,South,180,16.8,16.8,13,0.00,,,0.00,VWS V13.01,2013-04-06 18:47:00,
2013-04-06 13:52:00,73.8,19.9,29.20,ESE,112,7.2,8.3,13,0.00,,,0.00,VWS V13.01,2013-04-06 18:52:00,
2013-04-06 13:57:00,73.9,20.0,29.20,SSE,158,5.8,8.7,13,0.00,,,0.00,VWS V13.01,2013-04-06 18:57:00,
2013-04-06 14:02:00,74.3,20.3,29.20,South,180,8.7,13.2,13,0.00,,,0.00,VWS V13.01,2013-04-06 19:02:00,
2013-04-06 14:08:00,73.6,19.8,29.20,SE,135,4.5,9.6,13,0.00,,,0.00,VWS V13.01,2013-04-06 19:08:00,
2013-04-06 14:13:00,72.7,20.8,29.20,SE,135,7.6,11.0,14,0.00,,,0.00,VWS V13.01,2013-04-06 19:13:00,
2013-04-06 14:18:00,72.3,20.5,29.17,SE,135,9.6,9.6,14,0.00,,,0.00,VWS V13.01,2013-04-06 19:18:00,
2013-04-06 14:23:00,72.1,20.4,29.17,South,180,5.8,5.8,14,0.00,,,0.00,VWS V13.01,2013-04-06 19:23:00,
2013-04-06 14:28:00,72.3,20.5,29.17,South,180,11.0,11.0,14,0.00,,,0.00,VWS V13.01,2013-04-06 19:28:00,
2013-04-06 14:33:00,72.0,20.2,29.17,SW,225,5.4,5.4,14,0.00,,,0.00,VWS V13.01,2013-04-06 19:33:00,
2013-04-06 14:38:00,71.8,20.1,29.17,South,180,12.3,12.3,14,0.00,,,0.00,VWS V13.01,2013-04-06 19:38:00,
2013-04-06 14:44:00,72.0,20.2,29.17,South,180,10.1,15.4,14,0.00,,,0.00,VWS V13.01,2013-04-06 19:44:00,
2013-04-06 14:49:00,72.5,20.6,29.17,SE,135,3.6,4.5,14,0.00,,,0.00,VWS V13.01,2013-04-06 19:49:00,
2013-04-06 14:54:00,72.9,20.9,29.17,South,180,0.0,5.4,14,0.00,,,0.00,VWS V13.01,2013-04-06 19:54:00,
2013-04-06 15:00:00,73.6,19.8,29.17,SW,225,3.6,10.5,13,0.00,,,0.00,VWS V13.01,2013-04-06 20:00:00,
2013-04-06 15:05:00,73.9,20.0,29.17,SE,135,2.7,12.3,13,0.00,,,0.00,VWS V13.01,2013-04-06 20:05:00,
2013-04-06 15:10:00,74.7,20.6,29.17,South,180,6.3,8.1,13,0.00,,,0.00,VWS V13.01,2013-04-06 20:10:00,
2013-04-06 15:15:00,74.8,20.7,29.17,South,180,17.5,17.5,13,0.00,,,0.00,VWS V13.01,2013-04-06 20:15:00,
2013-04-06 15:20:00,74.3,20.3,29.17,South,180,3.1,3.1,13,0.00,,,0.00,VWS V13.01,2013-04-06 20:20:00,
2013-04-06 15:25:00,74.5,20.5,29.17,South,180,2.2,10.5,13,0.00,,,0.00,VWS V13.01,2013-04-06 20:25:00,
2013-04-06 15:31:00,75.2,21.0,29.17,South,180,7.6,9.2,13,0.00,,,0.00,VWS V13.01,2013-04-06 20:31:00,
2013-04-06 15:36:00,74.8,20.7,29.17,East,90,9.2,14.5,13,0.00,,,0.00,VWS V13.01,2013-04-06 20:36:00,
2013-04-06 15:41:00,74.8,20.7,29.17,SE,135,8.1,8.1,13,0.00,,,0.00,VWS V13.01,2013-04-06 20:41:00,
2013-04-06 15:46:00,74.3,20.3,29.17,West,270,8.7,8.7,13,0.00,,,0.00,VWS V13.01,2013-04-06 20:46:00,
2013-04-06 15:51:00,74.1,20.2,29.14,South,180,6.3,8.7,13,0.00,,,0.00,VWS V13.01,2013-04-06 20:51:00,
2013-04-06 15:56:00,74.1,20.2,29.14,South,180,5.8,8.1,13,0.00,,,0.00,VWS V13.01,2013-04-06 20:56:00,
2013-04-06 16:02:00,74.1,20.2,29.17,SE,135,6.3,6.3,13,0.00,,,0.00,VWS V13.01,2013-04-06 21:02:00,
2013-04-06 16:07:00,73.8,19.9,29.17,SE,135,5.4,10.5,13,0.00,,,0.00,VWS V13.01,2013-04-06 21:07:00,
2013-04-06 16:12:00,73.6,19.8,29.17,SE,135,8.1,8.1,13,0.00,,,0.00,VWS V13.01,2013-04-06 21:12:00,
2013-04-06 16:17:00,73.4,19.6,29.17,South,180,4.0,5.8,13,0.00,,,0.00,VWS V13.01,2013-04-06 21:17:00,
2013-04-06 16:22:00,73.2,21.2,29.14,West,270,7.6,13.2,14,0.00,,,0.00,VWS V13.01,2013-04-06 21:22:00,
2013-04-06 16:27:00,72.9,20.9,29.14,SE,135,5.4,8.7,14,0.00,,,0.00,VWS V13.01,2013-04-06 21:27:00,
2013-04-06 16:32:00,72.7,20.8,29.12,South,180,3.6,7.6,14,0.00,,,0.00,VWS V13.01,2013-04-06 21:32:00,
2013-04-06 16:38:00,73.0,21.1,29.12,South,180,5.8,5.8,14,0.00,,,0.00,VWS V13.01,2013-04-06 21:38:00,
2013-04-06 16:43:00,73.8,19.9,29.12,SE,135,3.1,5.8,13,0.00,,,0.00,VWS V13.01,2013-04-06 21:43:00,
2013-04-06 16:48:00,74.5,20.5,29.12,SE,135,8.3,11.0,13,0.00,,,0.00,VWS V13.01,2013-04-06 21:48:00,
2013-04-06 16:53:00,73.9,20.0,29.12,South,180,5.4,7.6,13,0.00,,,0.00,VWS V13.01,2013-04-06 21:53:00,
2013-04-06 16:58:00,73.6,19.8,29.12,South,180,7.2,7.2,13,0.00,,,0.00,VWS V13.01,2013-04-06 21:58:00,
2013-04-06 17:03:00,73.6,19.8,29.14,South,180,7.2,7.2,13,0.00,,,0.00,VWS V13.01,2013-04-06 22:03:00,
2013-04-06 17:09:00,73.4,19.6,29.14,SSE,158,11.0,11.0,13,0.00,,,0.00,VWS V13.01,2013-04-06 22:09:00,
2013-04-06 17:15:00,73.4,19.6,29.14,South,180,7.6,13.2,13,0.00,,,0.00,VWS V13.01,2013-04-06 22:15:00,
2013-04-06 17:20:00,73.6,19.8,29.12,SE,135,6.3,10.1,13,0.00,,,0.00,VWS V13.01,2013-04-06 22:20:00,
2013-04-06 17:25:00,73.6,19.8,29.12,South,180,5.4,8.3,13,0.00,,,0.00,VWS V13.01,2013-04-06 22:25:00,
2013-04-06 17:31:00,73.2,21.2,29.12,South,180,4.9,6.3,14,0.00,,,0.00,VWS V13.01,2013-04-06 22:31:00,
2013-04-06 17:36:00,72.9,20.9,29.12,South,180,9.6,9.6,14,0.00,,,0.00,VWS V13.01,2013-04-06 22:36:00,
2013-04-06 17:41:00,72.9,20.9,29.12,SSE,158,8.7,8.7,14,0.00,,,0.00,VWS V13.01,2013-04-06 22:41:00,
2013-04-06 17:46:00,73.0,21.1,29.12,South,180,4.0,5.8,14,0.00,,,0.00,VWS V13.01,2013-04-06 22:46:00,
2013-04-06 17:52:00,73.6,19.8,29.12,SE,135,4.0,4.0,13,0.00,,,0.00,VWS V13.01,2013-04-06 22:52:00,
2013-04-06 17:57:00,74.1,20.2,29.12,South,180,4.9,12.3,13,0.00,,,0.00,VWS V13.01,2013-04-06 22:57:00,
2013-04-06 18:02:00,73.9,20.0,29.12,South,180,5.8,5.8,13,0.00,,,0.00,VWS V13.01,2013-04-06 23:02:00,
2013-04-06 18:07:00,73.4,19.6,29.12,South,180,5.8,6.3,13,0.00,,,0.00,VWS V13.01,2013-04-06 23:07:00,
2013-04-06 18:12:00,73.0,21.1,29.12,SSE,158,6.3,6.3,14,0.00,,,0.00,VWS V13.01,2013-04-06 23:12:00,
2013-04-06 18:18:00,72.9,20.9,29.12,South,180,4.0,6.3,14,0.00,,,0.00,VWS V13.01,2013-04-06 23:18:00,
2013-04-06 18:23:00,72.7,20.8,29.12,South,180,2.2,7.6,14,0.00,,,0.00,VWS V13.01,2013-04-06 23:23:00,
2013-04-06 18:28:00,72.7,20.8,29.12,East,90,6.3,9.6,14,0.00,,,0.00,VWS V13.01,2013-04-06 23:28:00,
2013-04-06 18:33:00,72.5,20.6,29.12,South,180,4.0,4.0,14,0.00,,,0.00,VWS V13.01,2013-04-06 23:33:00,
2013-04-06 18:38:00,72.1,20.4,29.12,SE,135,8.1,8.1,14,0.00,,,0.00,VWS V13.01,2013-04-06 23:38:00,
2013-04-06 18:43:00,72.0,20.2,29.12,SE,135,2.2,4.9,14,0.00,,,0.00,VWS V13.01,2013-04-06 23:43:00,
2013-04-06 18:48:00,71.8,20.1,29.14,ESE,112,5.8,8.1,14,0.00,,,0.00,VWS V13.01,2013-04-06 23:48:00,
2013-04-06 18:53:00,71.8,20.1,29.14,South,180,0.0,3.6,14,0.00,,,0.00,VWS V13.01,2013-04-06 23:53:00,
2013-04-06 18:59:00,71.8,20.1,29.14,South,180,5.4,6.3,14,0.00,,,0.00,VWS V13.01,2013-04-06 23:59:00,
2013-04-06 19:04:00,72.0,20.2,29.14,SW,225,3.6,3.6,14,0.00,,,0.00,VWS V13.01,2013-04-07 00:04:00,
2013-04-06 19:09:00,72.0,20.2,29.14,SE,135,0.0,6.7,14,0.00,,,0.00,VWS V13.01,2013-04-07 00:09:00,
2013-04-06 19:14:00,71.8,20.1,29.14,South,180,5.4,5.4,14,0.00,,,0.00,VWS V13.01,2013-04-07 00:14:00,
2013-04-06 19:19:00,71.6,19.9,29.14,SSE,158,5.8,5.8,14,0.00,,,0.00,VWS V13.01,2013-04-07 00:19:00,
2013-04-06 19:24:00,71.4,19.8,29.14,SE,135,3.1,5.8,14,0.00,,,0.00,VWS V13.01,2013-04-07 00:24:00,
2013-04-06 19:29:00,71.1,19.5,29.14,SE,135,0.0,0.0,14,0.00,,,0.00,VWS V13.01,2013-04-07 00:29:00,
2013-04-06 19:34:00,70.5,19.1,29.14,South,180,6.3,6.3,14,0.00,,,0.00,VWS V13.01,2013-04-07 00:34:00,
2013-04-06 19:39:00,70.3,18.9,29.14,SE,135,0.0,4.9,14,0.00,,,0.00,VWS V13.01,2013-04-07 00:39:00,
2013-04-06 19:45:00,70.0,18.6,29.14,South,180,5.4,5.4,14,0.00,,,0.00,VWS V13.01,2013-04-07 00:45:00,
2013-04-06 19:50:00,69.8,18.5,29.14,South,180,4.9,5.4,14,0.00,,,0.00,VWS V13.01,2013-04-07 00:50:00,
2013-04-06 19:55:00,69.8,18.5,29.14,SSE,158,4.0,4.0,14,0.00,,,0.00,VWS V13.01,2013-04-07 00:55:00,
2013-04-06 20:00:00,69.6,20.0,29.14,South,180,2.2,3.6,15,0.00,,,0.00,VWS V13.01,2013-04-07 01:00:00,
2013-04-06 20:05:00,69.6,20.0,29.14,SSE,158,0.0,3.6,15,0.00,,,0.00,VWS V13.01,2013-04-07 01:05:00,
2013-04-06 20:10:00,69.4,19.8,29.14,South,180,0.0,0.0,15,0.00,,,0.00,VWS V13.01,2013-04-07 01:10:00,
2013-04-06 20:15:00,69.4,19.8,29.17,South,180,0.0,2.2,15,0.00,,,0.00,VWS V13.01,2013-04-07 01:15:00,
2013-04-06 20:21:00,69.3,19.7,29.17,SE,135,0.0,7.6,15,0.00,,,0.00,VWS V13.01,2013-04-07 01:21:00,
2013-04-06 20:26:00,69.3,19.7,29.17,South,180,3.6,3.6,15,0.00,,,0.00,VWS V13.01,2013-04-07 01:26:00,
2013-04-06 20:31:00,69.3,19.7,29.17,South,180,0.0,3.6,15,0.00,,,0.00,VWS V13.01,2013-04-07 01:31:00,
2013-04-06 20:36:00,69.3,19.7,29.17,South,180,0.0,0.0,15,0.00,,,0.00,VWS V13.01,2013-04-07 01:36:00,
2013-04-06 20:41:00,69.1,19.5,29.17,South,180,4.9,5.4,15,0.00,,,0.00,VWS V13.01,2013-04-07 01:41:00,
2013-04-06 20:46:00,68.9,19.4,29.17,SE,135,0.0,0.0,15,0.00,,,0.00,VWS V13.01,2013-04-07 01:46:00,
2013-04-06 20:51:00,68.9,19.4,29.17,SE,135,0.0,0.0,15,0.00,,,0.00,VWS V13.01,2013-04-07 01:51:00,
2013-04-06 20:56:00,68.7,19.2,29.17,SSE,158,3.1,3.1,15,0.00,,,0.00,VWS V13.01,2013-04-07 01:56:00,
2013-04-06 21:02:00,68.5,19.1,29.17,SE,135,0.0,5.4,15,0.00,,,0.00,VWS V13.01,2013-04-07 02:02:00,
2013-04-06 21:07:00,68.4,19.0,29.17,South,180,4.9,4.9,15,0.00,,,0.00,VWS V13.01,2013-04-07 02:07:00,
2013-04-06 21:12:00,68.2,18.8,29.17,SE,135,6.3,6.3,15,0.00,,,0.00,VWS V13.01,2013-04-07 02:12:00,
2013-04-06 21:17:00,68.2,18.8,29.17,South,180,0.0,2.7,15,0.00,,,0.00,VWS V13.01,2013-04-07 02:17:00,
2013-04-06 21:23:00,67.8,18.5,29.17,South,180,3.1,4.9,15,0.00,,,0.00,VWS V13.01,2013-04-07 02:23:00,
2013-04-06 21:28:00,67.6,18.4,29.17,SE,135,0.0,4.5,15,0.00,,,0.00,VWS V13.01,2013-04-07 02:28:00,
2013-04-06 21:33:00,67.1,17.9,29.17,SE,135,3.1,3.1,15,0.00,,,0.00,VWS V13.01,2013-04-07 02:33:00,
2013-04-06 21:38:00,66.9,17.8,29.17,East,90,3.1,3.1,15,0.00,,,0.00,VWS V13.01,2013-04-07 02:38:00,
2013-04-06 21:43:00,66.9,17.8,29.17,SE,135,2.7,2.7,15,0.00,,,0.00,VWS V13.01,2013-04-07 02:43:00,
2013-04-06 21:48:00,66.6,17.5,29.17,South,180,4.9,4.9,15,0.00,,,0.00,VWS V13.01,2013-04-07 02:48:00,
2013-04-06 21:53:00,66.4,17.4,29.17,SE,135,4.9,4.9,15,0.00,,,0.00,VWS V13.01,2013-04-07 02:53:00,
2013-04-06 21:58:00,66.4,17.4,29.17,SE,135,2.7,3.1,15,0.00,,,0.00,VWS V13.01,2013-04-07 02:58:00,
2013-04-06 22:04:00,66.2,17.2,29.17,South,180,0.0,10.1,15,0.00,,,0.00,VWS V13.01,2013-04-07 03:04:00,
2013-04-06 22:09:00,66.0,17.1,29.17,SE,135,4.0,5.8,15,0.00,,,0.00,VWS V13.01,2013-04-07 03:09:00,
2013-04-06 22:14:00,66.0,17.1,29.17,South,180,3.6,6.3,15,0.00,,,0.00,VWS V13.01,2013-04-07 03:14:00,
2013-04-06 22:19:00,66.0,17.1,29.17,SE,135,2.7,8.1,15,0.00,,,0.00,VWS V13.01,2013-04-07 03:19:00,
2013-04-06 22:24:00,66.0,17.1,29.17,South,180,3.6,8.7,15,0.00,,,0.00,VWS V13.01,2013-04-07 03:24:00,
2013-04-06 22:29:00,65.8,16.9,29.17,South,180,3.1,6.3,15,0.00,,,0.00,VWS V13.01,2013-04-07 03:29:00,
2013-04-06 22:34:00,65.8,16.9,29.17,SE,135,4.9,6.3,15,0.00,,,0.00,VWS V13.01,2013-04-07 03:34:00,
2013-04-06 22:39:00,65.8,16.9,29.17,South,180,2.2,2.2,15,0.00,,,0.00,VWS V13.01,2013-04-07 03:39:00,
2013-04-06 22:45:00,65.7,16.8,29.17,SE,135,2.7,3.6,15,0.00,,,0.00,VWS V13.01,2013-04-07 03:45:00,
2013-04-06 22:50:00,65.5,16.6,29.17,South,180,8.1,10.1,15,0.00,,,0.00,VWS V13.01,2013-04-07 03:50:00,
2013-04-06 22:55:00,65.7,16.8,29.17,SSE,158,4.0,4.0,15,0.00,,,0.00,VWS V13.01,2013-04-07 03:55:00,
2013-04-06 23:00:00,65.5,16.6,29.17,SE,135,0.0,5.8,15,0.00,,,0.00,VWS V13.01,2013-04-07 04:00:00,
2013-04-06 23:01:00,65.5,16.6,29.17,South,180,3.1,3.6,15,0.00,,,0.00,VWS V13.01,2013-04-07 04:01:00,
2013-04-06 23:06:00,65.5,16.6,29.17,South,180,5.4,7.6,15,0.00,,,0.00,VWS V13.01,2013-04-07 04:06:00,
2013-04-06 23:12:00,65.3,16.5,29.17,SW,225,2.7,2.7,15,0.00,,,0.00,VWS V13.01,2013-04-07 04:12:00,
2013-04-06 23:17:00,65.3,16.5,29.17,South,180,5.4,5.4,15,0.00,,,0.00,VWS V13.01,2013-04-07 04:17:00,
2013-04-06 23:22:00,65.3,16.5,29.17,South,180,2.7,9.2,15,0.00,,,0.00,VWS V13.01,2013-04-07 04:22:00,
2013-04-06 23:27:00,65.3,16.5,29.17,SW,225,0.0,3.6,15,0.00,,,0.00,VWS V13.01,2013-04-07 04:27:00,
2013-04-06 23:32:00,65.3,16.5,29.17,South,180,5.4,6.3,15,0.00,,,0.00,VWS V13.01,2013-04-07 04:32:00,
2013-04-06 23:37:00,65.3,16.5,29.17,South,180,3.1,3.1,15,0.00,,,0.00,VWS V13.01,2013-04-07 04:37:00,
2013-04-06 23:42:00,65.3,16.5,29.17,South,180,0.0,8.7,15,0.00,,,0.00,VWS V13.01,2013-04-07 04:42:00,
2013-04-06 23:47:00,65.3,16.5,29.17,SW,225,2.2,6.3,15,0.00,,,0.00,VWS V13.01,2013-04-07 04:47:00,
2013-04-06 23:52:00,65.3,16.5,29.17,South,180,0.0,0.0,15,0.00,,,0.00,VWS V13.01,2013-04-07 04:52:00,
2013-04-06 23:57:00,65.1,16.4,29.17,SW,225,7.2,10.5,15,0.00,,,0.00,VWS V13.01,2013-04-07 04:57:00,